Voltar ao catálogo

CZ-4C DEB

AtivoPO
NORAD 44613·DEBRIS·🇨🇳 China

Lançado Nov 14, 2017 de Taiyuan Satellite Launch Center

Loading…

Próximas Passagens (próximas 24 horas)

TLE

AtualizadoSource: Space-Track

Época: Sep 14, 2026, 00:41 UTC

1 44613U 17072D   26257.02868183  .00000222  00000-0  20289-3 0  9993
2 44613  98.4872 283.1304 0230625 107.8421 254.8034 13.80124710430190

Acompanhe CZ-4C DEB em tempo real com AllMySat

Download on the App Store